Regional Weather Roundup
Issued by NWS

Home | Current Version | Previous Version | Graphics & Text | Print | Product List | Glossary On
Versions: 1 2 3 4 5 6 7 8 9 10 11 12 13 14 15 16 17 18 19 20 21 22 23 24 25 26 27 28 29 30 31 32 33 34 35 36 37 38 39 40 41 42 43 44 45 46 47 48 49 50
000
ASUS43 KIND 221909
RWRIN

WEATHER ROUNDUP FOR INDIANA
NATIONAL WEATHER SERVICE INDIANAPOLIS IN
300 PM EDT SUN APR 22 2018

NOTE: "FAIR" INDICATES FEW OR NO CLOUDS BELOW 12,000 FEET WITH NO
SIGNIFICANT WEATHER AND/OR OBSTRUCTIONS TO VISIBILITY.

* - STATION DOES NOT REPORT WEATHER SUCH AS PRECIPITATION OR FOG.

+ - STATION NOT QUALITY CONTROLLED BY THE NATIONAL WEATHER SERVICE.
    USE DATA WITH CAUTION...ESPECIALLY DEWPOINT AND RELATIVE
    HUMIDITY OBSERVATIONS.

INZ001>003-010>013-019-020-222000-
NORTHWEST INDIANA

CITY           SKY/WX    TMP DP  RH WIND       PRES   REMARKS
GARY /AIRPORT/ PTSUNNY   57  28  33 NE13      30.30F
KNOX *+        FAIR      63  27  25 E8G14     30.27F
LA PORTE +     FAIR      63  25  24 SE14G21   30.30F
MICHIGAN CITY+ FAIR      64  27  24 E9G17     30.30F
MONTICELLO +   FAIR      64  22  20 E13G18    30.25S
RENSSELAER +   FAIR      64 -15   4 E18G26    30.25F
VALPARAISO     FAIR      66  20  17 E17G26    30.28F

$$

LMZ046-743>745-222000-
SOUTHERN LAKE MICHIGAN

STATION/POSITION TIME  TEMP    WIND        PRES    WAVE
                       AIR SEA DIR/SP/G            HT
                 (UTC) (F)     (DEG/KT/KT) (MB)    (FT)
BURNS HARBOR     1840   47      60/  8/ 10 1026.8S
MICHIGAN CITY    1840   51      20/ 12/ 15   N/A

$$

INZ004-005-014>016-021>024-222000-
NORTH CENTRAL INDIANA

CITY           SKY/WX    TMP DP  RH WIND       PRES   REMARKS
ELKHART        FAIR      63  21  20 E14G21    30.30
GOSHEN         FAIR      61  26  26 E13G23    30.31F
LOGANSPORT +   FAIR      61  27  27 E15G22    30.27F
PERU/GRISSOM   PTSUNNY   64  19  17 E20G25    30.27S
ROCHESTER +    FAIR      64  23  20 E18       30.29F
SOUTH BEND     FAIR      61  23  23 SE15      30.32F
WARSAW +       FAIR      61  28  29 E13G20    30.30F

$$

INZ006>009-017-018-025>027-222000-
NORTHEAST INDIANA

CITY           SKY/WX    TMP DP  RH WIND       PRES   REMARKS
ANGOLA *+      FAIR      59  25  27 E15G21    30.32
AUBURN +       FAIR      61  30  31 E13G20    30.32F
FORT WAYNE     PTSUNNY   63  31  30 E16G22    30.31F
HUNTINGTON +   FAIR      62  23  22 E9G22     30.29F

$$

INZ028-029-035-036-043>045-051>053-222000-
WEST CENTRAL INDIANA

CITY           SKY/WX    TMP DP  RH WIND       PRES   REMARKS
CRAWFORDSVL +  FAIR      63  31  30 E14       30.21F
GREENCASTLE +  FAIR      63  32  31 E12       30.21S
LAFAYETTE      FAIR      62  29  28 E13       30.24F
TERRE HAUTE    FAIR      67  38  34 E16       30.17F

$$

INZ030>032-037>040-046>048-054>057-064-065-222000-
CENTRAL INDIANA

CITY           SKY/WX    TMP DP  RH WIND       PRES   REMARKS
COLUMBUS       SUNNY     68 N/A N/A NE17      30.21F
FISHERS *+     FAIR      64  36  34 E9G20     30.23
FRANKFORT +    FAIR      66  25  20 E17G24    30.26F
GREENWOOD *+   FAIR      61  30  30 E10       30.23S
INDIANAPOLIS   PTSUNNY   63  25  23 E14       30.22F
-EAGLE CREEK   FAIR      64  31  28 E13       30.22F
KOKOMO +       FAIR      63  31  30 NE18G25   30.26F
MARION +       FAIR      61  27  27 E16G22    30.28F
MT COMFORT *+  FAIR      64  36  34 E15G23    30.23F
SHELBYVILLE    FAIR      66  29  24 E17       30.22F
ZIONSVILLE +   FAIR      63  29  27 NE15      30.24F

$$

INZ033-034-041-042-049-050-058-059-222000-
EAST CENTRAL INDIANA

CITY           SKY/WX    TMP DP  RH WIND       PRES   REMARKS
MUNCIE         FAIR      66  32  28 E17       30.25F

$$

INZ060-061-067>069-081>083-085>088-222000-
SOUTHWEST INDIANA

CITY           SKY/WX    TMP DP  RH WIND       PRES   REMARKS
EVANSVILLE     PTSUNNY   69  48  47 SE12      30.11F
HUNTINGBURG +  FAIR      70  47  43 E10G18    30.13F
WASHINGTON +   FAIR      68  37  31 E9G16     30.14F

$$

INZ062-063-066-070>080-084-089>092-222000-
SOUTH CENTRAL AND SOUTHEAST INDIANA

CITY           SKY/WX    TMP DP  RH WIND       PRES   REMARKS
BATESVILLE +   SUNNY     61  27  27 MISG      30.23S
BEDFORD +      FAIR      66  32  28 E10       30.17F
BLOOMINGTON    FAIR      66  31  27 E12       30.18S
FRENCH LICK *+ FAIR      68  28  22 E8        30.15F
MADISON *+     FAIR      64  30  27 NE14      30.22S
NORTH VERNON + FAIR      64  32  29 NE15      30.21S
SEYMOUR +      FAIR      70  37  30 E8        30.19F

$$





USA.gov is the U.S. government's official web portal to all federal, state and local government web resources and services.